This is the latest recevied weather packets stored in our database for station/object KE8KMM. If no packets are shown the sender has not sent any weather packets the latest 10 day(s).
| Time | Temp. | Humidity | Pressure | Rain* | Wind** | Luminosity | Snow |
|---|---|---|---|---|---|---|---|
| 1777658007 | 9.44° C | 89% | 1010.5 hPa | 0 mm | - | 175 W/m² | - |
| 1777657705 | 9.44° C | 89% | 1010.3 hPa | 0 mm | - | 151 W/m² | - |
| 1777657402 | 9.44° C | 90% | 1010.4 hPa | 0 mm | - | 271 W/m² | - |
| 1777657100 | 8.89° C | 90% | 1010.4 hPa | 0 mm | - | 133 W/m² | - |
| 1777656797 | 8.89° C | 90% | 1010.7 hPa | 0 mm | - | 208 W/m² | - |
| 1777656492 | 8.89° C | 91% | 1010.7 hPa | 0 mm | - | 154 W/m² | - |
| 1777656188 | 8.33° C | 91% | 1010.8 hPa | 1.78 mm | - | 151 W/m² | - |
| 1777655883 | 8.33° C | 91% | 1010.8 hPa | 1.78 mm | - | 95 W/m² | - |
| 1777655581 | 8.33° C | 91% | 1010.9 hPa | 3.05 mm | - | 87 W/m² | - |
| 1777655277 | 7.78° C | 91% | 1010.9 hPa | 1.78 mm | - | 119 W/m² | - |
| 1777654974 | 7.78° C | 91% | 1010.9 hPa | 3.05 mm | - | 100 W/m² | - |
| 1777654672 | 7.78° C | 91% | 1010.9 hPa | 3.05 mm | - | 82 W/m² | - |
| 1777654369 | 7.78° C | 91% | 1011 hPa | 3.05 mm | - | 65 W/m² | - |
| 1777654067 | 7.78° C | 91% | 1011 hPa | 3.05 mm | - | 53 W/m² | - |
| 1777653764 | 7.78° C | 91% | 1011 hPa | 4.83 mm | - | 57 W/m² | - |
| 1777653459 | 7.78° C | 90% | 1011.1 hPa | 1.78 mm | - | 54 W/m² | - |
| 1777653157 | 7.78° C | 90% | 1011.1 hPa | 0 mm | - | 46 W/m² | - |
| 1777652853 | 7.78° C | 90% | 1011.3 hPa | 1.27 mm | - | 47 W/m² | - |
| 1777652549 | 7.78° C | 90% | 1011.2 hPa | 3.05 mm | - | 114 W/m² | - |
| 1777652247 | 7.78° C | 89% | 1011.2 hPa | 3.05 mm | - | 76 W/m² | - |
| 1777651944 | 7.78° C | 89% | 1011.4 hPa | 3.05 mm | - | 65 W/m² | - |
| 1777651641 | 7.78° C | 88% | 1011.4 hPa | 3.05 mm | - | 52 W/m² | - |
| 1777651338 | 7.22° C | 88% | 1011.2 hPa | 4.32 mm | - | 73 W/m² | - |
| 1777651034 | 7.22° C | 89% | 1011.3 hPa | 1.27 mm | - | 64 W/m² | - |
| 1777650732 | 7.78° C | 90% | 1011.3 hPa | 1.78 mm | - | 65 W/m² | - |
* Rain latest hour (hover to see other rain measurements)
** Current wind speed in m/s (hover to see current wind gust speed)